Preview of NWS' New Version of Forecast
This preview is not operational and should not be used for support decisions.
Latest weather observations around

Mexia Limestone County Airport (KLXY)

Using English Units (Switch to International System of Units)
Date/ Time (CDT) Wind (mph) Vis. (mi) Weather Sky Cond. Temp (°F) Rel. Humidity Wind Chill (°F) Heat Index (°F) Pressure Precip. (in)
Air Dwpt 6 hour Altimeter (inHg) Sea level (inHg) 1 hr 3 hr 6 hr
Max Min
Jun 22 11:15 SW 15 10 Clear CLR 88 72     58%   95 29.91        
Jun 22 10:55 SSW 14 10 Clear CLR 87 72     60%   94 29.91        
Jun 22 10:35 SSW 15 10 Clear CLR 86 72     64%   92 29.91        
Jun 22 10:15 SW 16 10 Clear CLR 85 72     67%   91 29.92        
Jun 22 09:55 SSW 20 10 Clear and Windy CLR 84 72     69%   89 29.91        
Jun 22 09:35 SSW 15 10 Clear CLR 83 73     71%   89 29.91        
Jun 22 09:15 SSW 17 10 Partly Cloudy SCT014 81 72     74%   86 29.91        
Jun 22 08:55 SW 15 10 Partly Cloudy SCT012 80 73     79%   84 29.91        
Jun 22 08:35 SSW 14 10 Partly Cloudy SCT009 SCT014 79 73     83%   82 29.91        
Jun 22 08:15 SSW 10 10 Mostly Cloudy BKN009 78 73     86%   79 29.9        
Jun 22 07:55 SSW 13 10 Mostly Cloudy BKN007 76 73     89%   78 29.89        
Jun 22 07:35 SSW 14 10 Mostly Cloudy BKN007 76 73     91%   77 29.89        
Jun 22 07:15   10 Mostly Cloudy BKN009 75 72     91%   77 29.89        
Jun 22 06:55 SSW 11 10 Clear CLR 75 72     92%   76 29.89        
Jun 22 06:35 SSW 13 10 Clear CLR 75 72     91%   76 29.88        
Jun 22 06:15 SSW 15 10 Clear CLR 75 72     91%   76 29.88        
Jun 22 05:55 SSW 8 10 Clear CLR 75 72     90%   77 29.87        
Jun 22 05:35 SSW 9 10 Clear CLR 75 72     89%   77 29.87        
Jun 22 05:15 SSW 9 10 Clear CLR 76 72     89%   77 29.87        
Jun 22 04:55 SSW 9 10 Clear CLR 76 72     89%   77 29.86        
Jun 22 04:35 SSW 10 10 Clear CLR 76 73     89%   78 29.86        
Jun 22 04:15 SSW 10 10 Clear CLR 76 73     90%   78 29.86        
Jun 22 03:55 SSW 9 10 Clear CLR 76 73     89%   78 29.85        
Jun 22 03:35 SSW 15 10 Clear CLR 77 73     88%   79 29.85        
Jun 22 03:15 S 10 10 Clear CLR 77 73     88%   79 29.86        
Jun 22 02:55 SSW 10 10 Clear CLR 78 73     86%   79 29.86        
Jun 22 02:35 S 9 10 Clear CLR 78 73     86%   79 29.86        
Jun 22 02:15 S 10 10 Clear CLR 78 73     85%   80 29.86        
Jun 22 01:55 S 9 10 Clear CLR 79 73     84%   82 29.87        
Jun 22 01:35 S 8 10 Clear CLR 79 74     83%   83 29.87        
Jun 22 01:15 S 10 10 Clear CLR 80 74     83%   84 29.87        
Jun 22 00:55 S 9 10 Clear CLR 80 74     82%   85 29.87        
Jun 22 00:35 S 9 10 Clear CLR 81 74     81%   86 29.88        
Jun 22 00:15 S 10 10 Clear CLR 81 74     81%   86 29.88        
Jun 21 23:55 S 11 10 Clear CLR 81 74     80%   86 29.88        
Jun 21 23:35 S 14 10 Clear CLR 81 74     79%   87 29.88        
Jun 21 23:15 S 14 10 Clear CLR 81 74     77%   87 29.88        
Jun 21 22:55 S 11 10 Clear CLR 81 73     77%   87 29.88        
Jun 21 22:35 S 6 10 Clear CLR 82 74     75%   88 29.88        
Jun 21 22:15 S 8 10 Clear CLR 83 73     73%   89 29.88        
Jun 21 21:55 S 11 10 Clear CLR 83 72     71%   88 29.87        
Jun 21 21:35 S 6 10 Clear CLR 83 72     68%   89 29.87        
Jun 21 21:15 SE 3 10 Clear CLR 85 72     65%   91 29.86        
Jun 21 20:55 SE 3 10 Clear CLR 86 72     63%   93 29.85        
Jun 21 20:35 Calm 10 Clear CLR 88 72     60%   94 29.85        
Jun 21 20:15 SE 5 10 Clear CLR 89 72     57%   97 29.85        
Jun 21 19:55 SSE 8 10 Clear CLR 90 72     54%   98 29.85        
Jun 21 19:35 SE 7 10 Clear CLR 93 70     47%   99 29.84        
Jun 21 19:15 SSE 6 10 Clear CLR 93 69     45%   99 29.84        
Jun 21 18:55 WNW 5 10 Clear CLR 94 69     45%   100 29.84        
Jun 21 18:35 S 5 10 Clear CLR 94 69     44%   100 29.84        
Jun 21 18:15 WSW 5 10 Partly Cloudy SCT050 94 70     46%   100 29.84        
Jun 21 17:55 S 6 10 Mostly Cloudy BKN050 95 71     45%   102 29.84        
Jun 21 17:35 SSW 3 10 Partly Cloudy SCT050 94 70     46%   101 29.85        
Jun 21 17:15 SSW 7 10 Clear CLR 94 70     46%   101 29.86        
Jun 21 16:55 SSE 5 10 Partly Cloudy SCT060 93 71     50%   100 29.86        
Jun 21 16:35 SSE 7 10 Partly Cloudy SCT047 SCT050 91 71     52%   98 29.87        
Jun 21 16:15 SW 3 10 Partly Cloudy SCT047 SCT050 94 71     47%   101 29.88        
Jun 21 15:55 SSW 6 10 Partly Cloudy SCT047 93 71     49%   101 29.88        
Jun 21 15:35 SSE 9 10 Partly Cloudy SCT045 SCT060 SCT080 92 71     51%   100 29.89        
Jun 21 15:15 S 7 10 Mostly Cloudy BKN045 BKN050 BKN070 92 71     52%   99 29.9        
Jun 21 14:55 Calm 10 Mostly Cloudy SCT042 BKN050 BKN070 90 71     54%   97 29.91        
Jun 21 14:35 SE 5 10 Cloudy BKN042 OVC050 89 72     58%   95 29.91        
Jun 21 14:15 Calm 10 Mostly Cloudy BKN042 89 71     56%   96 29.92        
Jun 21 13:55 N 3 10 Mostly Cloudy BKN038 88 71     58%   94 29.92        
Jun 21 13:35 Calm 10 Mostly Cloudy BKN038 88 71     57%   94 29.93        
Jun 21 13:15 Calm 10 Partly Cloudy SCT032 90 72     55%   97 29.93        
Jun 21 12:55 Calm 10 Mostly Cloudy BKN032 86 72     62%   92 29.94        
Jun 21 12:35 W 9 10 Partly Cloudy SCT028 87 72     61%   93 29.94        
Jun 21 12:15 Calm 10 Partly Cloudy SCT026 85 72     66%   91 29.94        
Jun 21 11:55 W 8 10 Clear CLR 84 71     66%   89 29.95        
Jun 21 11:35 W 6 10 Partly Cloudy SCT017 83 72     70%   89 29.95        
Jun 21 11:15 NW 7 10 Mostly Cloudy BKN015 81 72     74%   86 29.95        
Jun 21 10:55 W 6 10 Cloudy OVC015 80 72     76%   84 29.95        
Jun 21 10:35 WSW 3 10 Cloudy OVC013 78 72     80%   80 29.95        
Jun 21 10:15 W 5 10 Cloudy OVC011 77 71     82%   78 29.95        
Jun 21 09:55 NNW 5 10 Cloudy OVC009 77 72     84%   78 29.95        
Jun 21 09:35 WSW 3 10 Cloudy OVC009 76 72     86%   77 29.95        
Jun 21 09:15 SW 3 10 Cloudy OVC009 75 71     88%   77 29.95        
Jun 21 08:55 SSE 3 10 Cloudy OVC007 75 71     88%   77 29.94        
Jun 21 08:35 W 5 10 Cloudy OVC007 75 72     90%   77 29.94        
Jun 21 08:15 W 6 10 Cloudy OVC007 74 72     91%   76 29.94        
Jun 21 07:55 SW 5 10 Cloudy OVC007 74 72     92%   76 29.93        
Jun 21 07:35 S 7 10 Cloudy OVC007 74 72     94%   75 29.92        
Jun 21 07:15 SSE 6 10 Cloudy OVC007 73 72     95%   75 29.91        
Jun 21 06:55 SSE 3 10 Cloudy OVC007 73 72     96%   75 29.91        
Jun 21 06:35 SE 5 10 Cloudy OVC007 73 72     97%   74 29.91        
Jun 21 06:15 SSW 3 10 Cloudy OVC007 73 72     98%   74 29.9        
Jun 21 05:55 SE 6 10 Cloudy OVC007 73 72     98%   75 29.9        
Jun 21 05:35 S 3 10 Cloudy SCT003 OVC009 73 72     97%   75 29.89        
Jun 21 05:15 SSE 3 10 Cloudy SCT003 OVC007 73 73     98%   75 29.89        
Jun 21 04:55 Calm 10 Cloudy OVC007 73 72     98%   75 29.9        
Jun 21 04:35 SSE 3 10 Cloudy BKN004 OVC007 73 72     98%   75 29.9        
Jun 21 04:15 S 6 10 Cloudy OVC004 73 72     98%   74 29.9        
Jun 21 03:55 W 6 10 Cloudy BKN004 OVC065 73 72     98%   74 29.9        
Jun 21 03:35 Calm 10 Cloudy SCT004 OVC065 73 72     98%   75 29.9        
Jun 21 03:15 S 6 10 Cloudy SCT004 OVC065 73 72     98%   75 29.9        
Jun 21 02:55 SSE 3 10 Cloudy BKN004 OVC065 73 72     98%   74 29.9        
Jun 21 02:35 SW 5 10 Partly Cloudy SCT065 73 72     98%   74 29.91        
Jun 21 02:15 SSE 3 10 Clear CLR 73 72     98%   75 29.89        
Jun 21 01:55 SSE 5 10 Clear CLR 72 72     98%   74 29.89        
Jun 21 01:35 ESE 7 10 Clear CLR 73 72     98%   74 29.89        
Jun 21 01:15 SSE 5 10 Clear CLR 72 71     97%   73 29.89        
Jun 21 00:55 ESE 5 10 Clear CLR 73 72     97%   75 29.89        
Jun 21 00:35 WNW 5 10 Clear CLR 74 73     96%   76 29.88        
Jun 21 00:15 WNW 5 10 Clear CLR 75 73     95%   76 29.89        
Jun 20 23:55 S 7 10 Clear CLR 75 73     94%   77 29.88        
Jun 20 23:35 SSE 8 10 Clear CLR 76 73     92%   77 29.88        
Jun 20 23:15 SSE 6 10 Clear CLR 76 73     91%   77 29.89        
Jun 20 22:55 S 8 10 Clear CLR 76 73     90%   78 29.89        
Jun 20 22:35 SSE 7 10 Clear CLR 76 72     88%   78 29.88        
Jun 20 22:15 SSE 8 10 Clear CLR 77 72     86%   78 29.88        
Jun 20 21:55 SE 7 10 Clear CLR 77 72     85%   79 29.87        
Jun 20 21:35 SE 6 10 Clear CLR 78 72     83%   79 29.87        
Jun 20 21:15 ESE 8 10 Clear CLR 79 72     81%   82 29.86        
Jun 20 20:55 ESE 11 10 Mostly Cloudy SCT023 BKN028 80 73     78%   84 29.86        
Jun 20 20:35 ESE 11 10 Partly Cloudy SCT021 81 73     78%   85 29.85        
Jun 20 20:15 ESE 11 10 Partly Cloudy SCT021 81 73     77%   86 29.84        
Jun 20 19:55 ESE 11 10 Partly Cloudy SCT021 82 73     76%   87 29.84        
Jun 20 19:35 SSE 13 10 Clear CLR 82 73     73%   88 29.84        
Jun 20 19:15 S 13 10 Clear CLR 83 72     70%   89 29.83        
Jun 20 18:55 SSE 13 10 Clear CLR 83 72     70%   89 29.83        
Jun 20 18:35 SSE 13 10 Partly Cloudy SCT065 83 72     69%   89 29.82        
Jun 20 18:15 S 10 10 Mostly Cloudy SCT048 BKN065 83 72     69%   89 29.82        
Jun 20 17:55 S 15 10 Mostly Cloudy SCT030 SCT048 BKN065 83 73     70%   89 29.83        
Jun 20 17:35 S 15 10 Partly Cloudy SCT030 SCT065 84 72     66%   90 29.83        
Jun 20 17:15 S 9 10 Mostly Cloudy SCT029 BKN036 87 72     63%   93 29.83        
Jun 20 16:55 SE 6 10 Mostly Cloudy BKN029 BKN034 BKN047 84 72     68%   91 29.84        
Jun 20 16:35 S 9 10 Mostly Cloudy SCT023 SCT030 BKN055 84 73     68%   91 29.84        
Jun 20 16:15 ESE 10 10 Mostly Cloudy SCT023 SCT029 BKN055 83 73     71%   90 29.85        
Jun 20 15:55 S 11 10 Mostly Cloudy SCT021 BKN031 BKN042 83 73     72%   88 29.86        
Jun 20 15:35 SE 10 10 Cloudy SCT021 BKN029 OVC049 81 74     77%   87 29.86        
Jun 20 15:15 ESE 7 10 Cloudy SCT015 BKN029 OVC048 81 74     79%   87 29.86        
Jun 20 14:55 SSE 7 10 Cloudy BKN013 BKN027 OVC048 81 74     80%   87 29.87        
Jun 20 14:35 SSE 7 10 Mostly Cloudy SCT013 BKN020 BKN029 80 74     83%   84 29.88        
Jun 20 14:15 SSE 7 10 Light Rain SCT013 BKN022 BKN030 79 75     87%   83 29.89        
Jun 20 13:55 SSE 7 10 Rain BKN013 OVC022 78 74     87%   81 29.89        
Jun 20 13:35 SSE 5 10 Cloudy SCT007 BKN013 OVC020 78 75     90%   80 29.89        
Jun 20 13:15 SE 6 10 Cloudy BKN007 BKN013 OVC085 77 74     91%   79 29.9        
Jun 20 12:55 SE 6 10 Cloudy SCT007 BKN013 OVC085 76 74     96%   78 29.9   0   0
Jun 20 12:35 S 7 10 Rain SCT007 BKN016 OVC022 75 74     95%   77 29.91        
Jun 20 12:15 SSE 6 10 Light Drizzle SCT008 BKN013 OVC021 75 74     96%   76 29.91        
Jun 20 11:55 SE 6 10 Cloudy BKN007 OVC013 74 73     96%   76 29.91   0    
Jun 20 11:35 SSE 7 10 Light Drizzle BKN007 OVC012 74 73     97%   76 29.91   0    
Jun 20 11:15 SSE 7 10 Drizzle OVC005 74 73     97%   76 29.91   0    
Jun 20 10:55 SSE 7 7 Drizzle OVC005 74 73     97%   76 29.91   0    
Jun 20 10:35 SE 9 10 Light Rain OVC005 74 73     97%   76 29.91        
Jun 20 10:15 SSE 7 10 Light Drizzle BKN005 OVC009 74 73     96%   76 29.9        
Jun 20 09:55 SSE 7 10 Light Rain OVC007 74 73     95%   76 29.91   0 0  
Jun 20 09:35 SE 6 10 Cloudy OVC007 74 73     96%   76 29.91        
Jun 20 09:15 S 7 7 Light Rain OVC007 74 73     95%   76 29.9        
Jun 20 08:55 S 8 10 Cloudy OVC007 75 72     92%   76 29.89        
Jun 20 08:35 S 8 10 Cloudy OVC007 75 73     94%   77 29.89        
Jun 20 08:15 S 8 10 Cloudy OVC007 75 74     96%   76 29.88        
Jun 20 07:55 S 7 5 Light Rain OVC007 74 73     95%   76 29.87        
Jun 20 07:35 S 7 10 Cloudy OVC009 74 72     95%   76 29.87        
Jun 20 07:15 SW 5 10 Cloudy SCT006 BKN011 OVC014 74 72     96%   75 29.87        
Jun 20 06:55 SSE 7 10 Cloudy SCT006 BKN015 OVC024 74 72     96%   75 29.86        
Jun 20 06:35 S 7 10 Cloudy BKN006 OVC015 74 72     96%   75 29.86        
Jun 20 06:15 S 6 10 Cloudy BKN006 BKN022 OVC030 74 72     96%   75 29.86        
Jun 20 05:55 S 7 10 Cloudy BKN006 BKN022 OVC029 73 72     97%   75 29.86        
Jun 20 05:35 SSE 7 10 Cloudy OVC006 73 72     97%   75 29.85        
Jun 20 05:15 S 8 10 Cloudy OVC006 73 72     97%   75 29.85        
Jun 20 04:55 SSE 7 10 Cloudy OVC006 73 72     97%   75 29.85        
Jun 20 04:40 SSE 7 10 Cloudy OVC006 73 72     96%   75 29.85        
Jun 20 04:15 S 7 10 Cloudy OVC006 73 72     96%   75 29.85        
Jun 20 03:55 SSE 7 10 Cloudy BKN006 BKN009 OVC014 73 72     96%   75 29.85        
Jun 20 03:35 SSE 7 10 Cloudy SCT008 OVC014 73 72     95%   75 29.86        
Jun 20 03:15 S 7 10 Cloudy SCT008 OVC016 73 72     96%   75 29.86        
Jun 20 02:55 S 7 10 Cloudy OVC018 73 72     96%   75 29.87        
Jun 20 02:35 S 7 10 Cloudy OVC022 73 72     96%   75 29.89        
Jun 20 02:15 S 7 10 Cloudy BKN020 OVC025 73 72     95%   75 29.89        
Jun 20 01:55 S 7 10 Cloudy BKN018 OVC024 73 72     95%   75 29.89        
Jun 20 01:35 S 7 10 Clear   73 72     96%   74 29.9        
Jun 20 01:15 S 7 10 Clear   73 72     96%   74 29.91        
Jun 20 00:55 S 7 10 Clear   73 72     94%   75 29.91        
Jun 20 00:35 S 7 10 Partly Cloudy SCT048 73 72     94%   75 29.91        
Jun 20 00:15 S 8 10 Partly Cloudy SCT050 74 72     94%   75 29.91        
Jun 19 23:55 S 8 10 Mostly Cloudy BKN050 74 72     93%   75 29.91        
Jun 19 23:35 S 10 10 Cloudy OVC050 74 72     92%   76 29.91        
Jun 19 23:15 S 8 10 Cloudy OVC055 74 72     94%   76 29.91        
Jun 19 22:55 S 8 10 Mostly Cloudy SCT011 BKN055 BKN070 74 73     95%   76 29.91        
Jun 19 22:35 SSE 8 10 Cloudy SCT011 OVC065 74 73     95%   76 29.91        
Jun 19 22:15 SSE 7 10 Cloudy SCT026 SCT050 OVC065 74 73     96%   76 29.9        
Jun 19 21:55 S 7 10 Mostly Cloudy SCT050 BKN065 BKN080 74 73     95%   76 29.9     0  
Jun 19 21:35 S 8 10 Cloudy SCT023 BKN065 OVC080 74 73     95%   76 29.89        
Jun 19 21:15 SSE 9 10 Cloudy OVC023 74 73     94%   76 29.89        
Jun 19 20:55 SE 8 10 Light Rain BKN021 OVC028 75 72     91%   76 29.89   0    
Jun 19 20:35 E 8 10 Rain BKN028 OVC033 79 70     75%   80 29.88   0    
Jun 19 20:15 E 7 10 Mostly Cloudy SCT032 BKN055 80 69     68%   83 29.88        
Jun 19 19:55 ESE 10 10 Cloudy SCT034 SCT042 OVC055 81 69     67%   84 29.87        
Jun 19 19:35 ESE 11 10 Cloudy BKN031 OVC037 81 69     67%   84 29.87        
Jun 19 19:15 ESE 11 10 Cloudy BKN031 OVC040 81 69     66%   85 29.87        
Jun 19 18:55 ESE 10 10 Mostly Cloudy SCT035 BKN044 82 69     65%   86 29.87        
Jun 19 18:35 ESE 11 7 Partly Cloudy SCT031 SCT050 83 69     63%   86 29.87        
Jun 19 18:15 ESE 10 10 Cloudy SCT031 SCT043 OVC050 83 69     62%   87 29.87        
Jun 19 17:55 ESE 10 10 Cloudy SCT031 BKN047 OVC060 84 70     62%   88 29.87        
Jun 19 17:35 E 8 10 Cloudy BKN031 BKN037 OVC047 85 71     63%   89 29.88        
Jun 19 17:15 ESE 11 10 Cloudy SCT028 BKN033 OVC060 84 70     63%   89 29.88        
Jun 19 16:55 ESE 11 10 Mostly Cloudy SCT028 SCT044 BKN060 84 71     64%   89 29.88        
Jun 19 16:35 ESE 9 10 Mostly Cloudy BKN030 BKN035 BKN043 84 71     64%   89 29.88        
Jun 19 16:15 ESE 9 10 Mostly Cloudy SCT028 BKN035 BKN043 84 71     66%   89 29.88        
Jun 19 15:55 ESE 11 10 Mostly Cloudy SCT026 SCT033 BKN039 85 71     64%   90 29.89        
Jun 19 15:35 E 9 10 Cloudy BKN026 BKN040 OVC055 83 71     67%   87 29.9        
Jun 19 15:15 ESE 10 10 Cloudy BKN024 BKN041 OVC055 83 71     67%   87 29.9        
Jun 19 14:55 E 8 10 Cloudy BKN022 OVC029 81 71     70%   85 29.91        
Jun 19 14:35 ESE 10 10 Cloudy BKN022 OVC029 82 71     70%   87 29.92        
Jun 19 14:15 E 10 10 Cloudy BKN018 OVC029 81 71     72%   85 29.93        
Jun 19 13:55 E 13 10 Cloudy OVC016 79 71     75%   82 29.94        
Jun 19 13:35 SE 11 10 Cloudy OVC016 79 71     74%   82 29.94        
Jun 19 13:15 ESE 11 10 Cloudy OVC014 77 70     79%   78 29.94        
Jun 19 12:55 ESE 15 10 Cloudy OVC014 78 70     77%   79 29.95        
Jun 19 12:35 E 10 10 Cloudy OVC014 78 70     77%   79 29.96        
Jun 19 12:15 SE 10 10 Cloudy OVC014 77 70     78%   78 29.96        
Jun 19 11:55 ESE 10 10 Cloudy OVC014 77 70     78%   78 29.97        
Jun 19 11:35 E 13 10 Cloudy OVC016 76 69     77%   77 29.97        
Jun 19 11:15 E 14 10 Cloudy BKN016 OVC025 78 69     75%   79 29.97        
May 14 19:55 ESE 8 10 Clear CLR 79 67     65%   80 29.87        
May 14 11:55 S 10 10 Mostly Cloudy BKN025 BKN034 80 68     67%   83 30.01        
May 14 05:15 SSE 5 10 Clear   69 68     95%     29.98        
May 14 00:15 SSE 7 10 Partly Cloudy SCT060 SCT070 75 68     78%   76 29.98        
May 13 22:35 SSE 6 10 Clear CLR 75 66     74%   76          
May 13 12:35 S 13 10 Clear   83 69     61%   87 30.04        
May 13 11:55 S 10 10 Clear   81 68     64%   84 30.05        
May 13 11:35 S 9 10 Cloudy OVC038 81 68     65%   84 30.05        
May 13 08:15 SSE 6 10 Cloudy SCT010 SCT016 OVC029 72 69     91%   73 30.04        
May 13 06:15 Calm 10 Cloudy OVC014 70 68     95%     29.99        
May 13 00:35 SE 10 10 Clear CLR 75 68     80%   76 30        
May 12 13:55 S 11 10 Partly Cloudy SCT045 SCT050 SCT065 86 66     51%   89 29.98        
May 12 08:55 SSE 13 10 Cloudy OVC012 74 69     83%   76 29.99        
May 12 06:55 SSE 6 10 Cloudy BKN014 BKN021 OVC033 72 68     90%   73 29.97        
May 11 21:35 SE 8 10 Clear CLR 73 63     69%   74 29.9        
May 11 17:55 SSE 16 10 Partly Cloudy SCT060 86 61     43%   86 29.87        
May 11 17:35 SSE 17 10 Partly Cloudy SCT060 86 61     43%   87 29.88        
May 11 12:15 S 17 10 Mostly Cloudy BKN041 82 64     55%   84 29.98        
Jun 12 04:55 SSE 5 10 Mostly Cloudy BKN011 73 72     98%   74 29.92        
Notice The following observation data may not be complete
Jun 12 03:15   10 Cloudy OVC015          %              
Jun 12 02:35 SSE 8 10 Clear CLR 74 72     94%   76 29.92        
Jun 11 22:55 ESE 8 10 Partly Cloudy SCT044 SCT050 78 70     77%   79 29.91        
Jun 11 20:55 E 10 10 Clear CLR 80 68     68%   83 29.89        
Jun 11 18:35 SE 13 10 Partly Cloudy SCT050 87 66     50%   90 29.87        
Jun 11 17:15 SE 13 10 Clear   88 66     48%   91 29.89        
Jun 11 15:15 SE 13 10 Clear CLR 87 65     48%   89 29.92        
Jun 11 10:35 SSE 18 10 Partly Cloudy SCT028 81 67     63%   83 29.97        
Jun 11 07:35 SSE 6 10 Partly Cloudy SCT005 71 70     96%   72 29.94        
Jun 11 00:55 SSE 10 10 Clear CLR 75 69     83%   76 29.92        
Jun 10 23:15 SSE 8 10 Clear CLR 76 69     79%   77 29.92        
Jun 10 20:55 ESE 6 10 Clear CLR 78 66     67%   79 29.86        
Jun 10 16:15 SSE 18 10 Clear CLR 86 65     48%   88 29.88        
Jun 10 10:55 SSE 11 10 Mostly Cloudy BKN027 81 67     63%   83 29.93        
Jun 10 08:55 SSE 9 10 Mostly Cloudy BKN065 74 66     76%   75 29.93        
Jun 10 04:15 SSE 5 10 Clear CLR 68 67     97%     29.87        
Jun 09 20:55 SSE 8 10 Partly Cloudy SCT085 73 68     84%   74 29.86        
Jun 09 20:35 SSE 7 10 Partly Cloudy SCT085 74 68     82%   75 29.86        
Notice The following observation data may not be complete
Jun 09 20:15   10 Partly Cloudy SCT075          %              
Jun 09 18:55 SE 10 10 Cloudy OVC065 77 67     72%   78 29.86        
Notice The following observation data may not be complete
Jun 09 16:15   10 Partly Cloudy SCT085          %              
Jun 09 10:35 N 5 10 Cloudy OVC050 71 64     80%   71 29.97        
Notice The following observation data may not be complete
Jun 09 08:15   10 Cloudy OVC048          %              
Jun 09 03:15 Calm 10 Partly Cloudy SCT120 69 60     73%     29.89        
Notice The following observation data may not be complete
Jun 09 01:55   10 Partly Cloudy SCT120          %              
Jun 08 23:35 SSE 5 10 Clear CLR 71 63     76%   71 29.91        
Jun 08 23:15 SSE 6 10 Clear CLR 71 63     77%   71 29.91        
Jun 08 19:55 E 6 10 Clear CLR 80 63     56%   80 29.89        
Jun 08 12:55 SSE 5 10 Partly Cloudy SCT050 SCT065 82 60     46%   82 30        
Notice The following observation data may not be complete
Jun 08 07:35   10 Mostly Cloudy BKN050          %              
Jun 08 05:15 Calm 10 Partly Cloudy SCT060 68 61     79%     29.97        
Jun 08 01:15 SSW 5 10 Clear CLR 72 64     78%   72 29.95        
Notice The following observation data may not be complete
Jun 07 21:15   10 Clear CLR          %              
Jun 07 18:35 NNE 6 10 Partly Cloudy SCT110 85 65     51%   87 29.9        
Jun 07 12:55 W 9 10 Mostly Cloudy BKN060 BKN070 87 66     50%   89 29.95        
Notice The following observation data may not be complete
Jun 06 10:15   10 Cloudy SCT015 BKN029 OVC035          %              
Notice The following observation data may not be complete
Jun 06 09:35   10 Mostly Cloudy SCT009 BKN015 BKN025          %              
Notice The following observation data may not be complete
Jun 06 09:15   10 Cloudy BKN009 OVC020          %              
Jun 06 05:15 WNW 8 10 Clear CLR 70 69     98%     29.8        
Jun 06 04:15 NW 9 10 Clear CLR 70 69     98%     29.8        
Jun 05 15:15 NE 9 10 Partly Cloudy SCT029 SCT036 81 69     65%   85 29.72        
Jun 05 14:15 N 7 10 Cloudy BKN027 OVC032 80 68     66%   83 29.75        
Jun 05 13:55 NNE 8 10 Cloudy BKN025 OVC035 80 69     67%   83 29.75